Regional Weather Roundup
Issued by NWS

Home | Current Version | Previous Version | Graphics & Text | Print | Product List | Glossary On
Versions: 1 2 3 4 5 6 7 8 9 10 11 12 13 14 15 16 17 18 19 20 21 22 23 24 25 26 27 28 29 30 31 32 33 34 35 36 37 38 39 40 41 42 43 44 45 46 47 48 49 50
000
ASUS43 KFSD 011702
RWRSD

WEATHER ROUNDUP FOR SOUTH DAKOTA
NATIONAL WEATHER SERVICE SIOUX FALLS SD
1200 PM CDT WED APR 01 2015

NOTE: "FAIR" INDICATES FEW OR NO CLOUDS BELOW 12,000 FEET WITH NO
SIGNIFICANT WEATHER AND/OR OBSTRUCTIONS TO VISIBILITY.


SDZ001>005-009-010-012>017-011800-
NORTHWEST AND NORTH CENTRAL SOUTH DAKOTA

CITY           SKY/WX    TMP DP  RH WIND       PRES   REMARKS
BUFFALO          N/A     54  23  30 NW37G46   29.63R
FAITH            N/A     56  30  37 NW33G41   29.63R
MOBRIDGE       SUNNY     66  40  38 NW26G33   29.50R
$$

SDZ012>016-024>037-041>051-057-063-072>074-011800-
SOUTHWEST AND SOUTH CENTRAL SOUTH DAKOTA

CITY           SKY/WX    TMP DP  RH WIND       PRES   REMARKS
RAPID CTY ARPT PTSUNNY   56  35  45 N31G41    29.68R
PIERRE         CLOUDY    66  40  38 NW28G37   29.52R
CUSTER         MOSUNNY   58  27  30 SW10      29.70S
ELLSWORTH AFB  PTSUNNY   54  35  48 NW31G40   29.69R
PHILIP         MOSUNNY   63  36  36 NW28G38   29.63R
PINE RIDGE     CLOUDY    58  35  42 N15       29.69S
SPEARFISH      CLOUDY    46  30  53 NW16G30   29.78R
WINNER         FAIR      67  35  30 NW21G30   29.58R
$$

SDZ004>011-016>023-039-040-011800-
NORTHEAST SOUTH DAKOTA

CITY           SKY/WX    TMP DP  RH WIND       PRES   REMARKS
ABERDEEN       CLOUDY    66  31  27 W13       29.43R
WATERTOWN      CLOUDY    66  42  41 S28G38    29.47F
BROOKINGS      CLOUDY    66  43  42 S25G37    29.53F
SISSETON         N/A     67  40  37 SW35G47   29.35F
$$

SDZ017-020-022-023-036>040-048>070-011800-
SOUTHEAST SOUTH DAKOTA

CITY           SKY/WX    TMP DP  RH WIND       PRES   REMARKS
SIOUX FALLS    PTSUNNY   74  42  31 S26G37    29.56F
HURON          CLOUDY    71  40  32 SW15G21   29.47F
MITCHELL       PTSUNNY   75  43  31 SW14G30   29.50F
YANKTON        MOSUNNY   73  45  35 S16G29    29.57F
$$

ABBREVIATIONS USED IN REMARKS
   TC - TEMPERATURE IN CELSIUS
  WCI - WIND CHILL INDEX
   HX - HEAT INDEX
  VSB - VISIBILITY



USA.gov is the U.S. government's official web portal to all federal, state and local government web resources and services.